User: anonymous   Login
Location: Unspecified
(0.0000°N, 0.0000°E)
Time: 09:07:03
(UTC+00:00)
Language:

USA 157 - Orbit

View from above orbital plane
View from above orbital plane
View from above satellite
View from above satellite

Ground track
Ground track

The orbit data is extracted from the following two-line orbital elements,

1 26715U 01009A   24114.22716957  .00000023  00000-0  00000+0 0  9996
2 26715  10.6909  24.1255 0003232  10.1935 134.9856  1.00275974 23776
Epoch (UTC): 23 April 2024 05:27:07
Eccentricity: 0.0003232
inclination: 10.6909°
perigee height: 35771 km
apogee height: 35798 km
right ascension of ascending node: 24.1255°
argument of perigee: 10.1935°
revolutions per day: 1.00275974
mean anomaly at epoch: 134.9856°
orbit number at epoch: 2377

The dashed part of the orbit path shows where the satellite is in the earth's shadow,  

DLR